Location: Strada George Coșbuc
(47.6577°N, 23.5639°E)
Time: 23:06:03
(UTC+02:00)

ISS - Pass Details

Date: 04 September 2017
Orbit: 403 x 407 km, 51.6° (Epoch: 18 February)

Event Time Altitude Azimuth Distance (km) Brightness Sun altitude
Exits shadow 04:39:25 10° 143° (SE) 1,467 -1.0 -20.5°
Maximum altitude 04:39:59 11° 133° (SE) 1,448 -0.9 -20.4°
Drops below altitude 10° 04:40:51 10° 118° (ESE) 1,496 -0.7 -20.3°
Sets 04:44:22 0° 79° (E) 2,362 1.2 -19.8°
